owner,sensor,date,latitude,longitude,vertical_datum,mass_concentration_of_oxygen_in_sea_water,qcFlag 
SCCF RECON,ioos:station:SCCF:13:1,2016-06-01T00:00:00Z,26.5255,-82.0032,2.471,6.49,1111122 
SCCF RECON,ioos:station:SCCF:13:1,2016-06-01T01:00:00Z,26.5255,-82.0032,2.54,6.76,1111122 
SCCF RECON,ioos:station:SCCF:13:1,2016-06-01T02:00:00Z,26.5255,-82.0032,2.58,6.53,1111122 
SCCF RECON,ioos:station:SCCF:13:1,2016-06-01T03:00:00Z,26.5255,-82.0032,2.61,6.61,1111122 
SCCF RECON,ioos:station:SCCF:13:1,2016-06-01T04:00:00Z,26.5255,-82.0032,2.58,6.72,1111122 
SCCF RECON,ioos:station:SCCF:13:1,2016-06-01T05:00:00Z,26.5255,-82.0032,2.55,6.86,1111122 
SCCF RECON,ioos:station:SCCF:13:1,2016-06-01T06:00:00Z,26.5255,-82.0032,2.49,6.59,1111122 
SCCF RECON,ioos:station:SCCF:13:1,2016-06-01T07:00:00Z,26.5255,-82.0032,2.42,6.15,1111122 
SCCF RECON,ioos:station:SCCF:13:1,2016-06-01T08:00:00Z,26.5255,-82.0032,2.35,5.84,1111122 
SCCF RECON,ioos:station:SCCF:13:1,2016-06-01T09:00:00Z,26.5255,-82.0032,2.32,5.83,1111122 
SCCF RECON,ioos:station:SCCF:13:1,2016-06-01T10:00:00Z,26.5255,-82.0032,2.378,5.9,1111122 
SCCF RECON,ioos:station:SCCF:13:1,2016-06-01T11:00:00Z,26.5255,-82.0032,2.484,5.41,1111122 
SCCF RECON,ioos:station:SCCF:13:1,2016-06-01T12:00:00Z,26.5255,-82.0032,2.58,5.44,1111122 
SCCF RECON,ioos:station:SCCF:13:1,2016-06-01T13:00:00Z,26.5255,-82.0032,2.66,5.78,1111122 
SCCF RECON,ioos:station:SCCF:13:1,2016-06-01T14:00:00Z,26.5255,-82.0032,2.72,5.78,1111122 
SCCF RECON,ioos:station:SCCF:13:1,2016-06-01T15:00:00Z,26.5255,-82.0032,2.751,5.57,1111122 
SCCF RECON,ioos:station:SCCF:13:1,2016-06-01T16:00:00Z,26.5255,-82.0032,2.744,5.86,1111122 
SCCF RECON,ioos:station:SCCF:13:1,2016-06-01T17:00:00Z,26.5255,-82.0032,2.67,5.79,1111122 
SCCF RECON,ioos:station:SCCF:13:1,2016-06-01T18:00:00Z,26.5255,-82.0032,2.549,6.13,1111122 
SCCF RECON,ioos:station:SCCF:13:1,2016-06-01T19:00:00Z,26.5255,-82.0032,2.421,6.22,1111122 
SCCF RECON,ioos:station:SCCF:13:1,2016-06-01T20:00:00Z,26.5255,-82.0032,2.328,6.52,1111122 
SCCF RECON,ioos:station:SCCF:13:1,2016-06-01T21:00:00Z,26.5255,-82.0032,2.25,6.66,1111122 
SCCF RECON,ioos:station:SCCF:13:1,2016-06-01T22:00:00Z,26.5255,-82.0032,2.205,6.61,1111122 
SCCF RECON,ioos:station:SCCF:13:1,2016-06-01T23:00:00Z,26.5255,-82.0032,2.27,6.55,1111122 
SCCF RECON,ioos:station:SCCF:13:1,2016-06-02T00:00:00Z,26.5255,-82.0032,2.373,6.46,1111122 
SCCF RECON,ioos:station:SCCF:13:1,2016-06-02T01:00:00Z,26.5255,-82.0032,2.47,6.17,1111122 
SCCF RECON,ioos:station:SCCF:13:1,2016-06-02T02:00:00Z,26.5255,-82.0032,2.499,6.15,1111122 
SCCF RECON,ioos:station:SCCF:13:1,2016-06-02T03:00:00Z,26.5255,-82.0032,2.56,6.13,1111122 
SCCF RECON,ioos:station:SCCF:13:1,2016-06-02T04:00:00Z,26.5255,-82.0032,2.61,6.3,1111122 
SCCF RECON,ioos:station:SCCF:13:1,2016-06-02T05:00:00Z,26.5255,-82.0032,2.63,6.4,1111122 
SCCF RECON,ioos:station:SCCF:13:1,2016-06-02T06:00:00Z,26.5255,-82.0032,2.56,6.25,1111122 
SCCF RECON,ioos:station:SCCF:13:1,2016-06-02T07:00:00Z,26.5255,-82.0032,2.48,6.21,1111122 
SCCF RECON,ioos:station:SCCF:13:1,2016-06-02T08:00:00Z,26.5255,-82.0032,2.41,5.76,1111122 
SCCF RECON,ioos:station:SCCF:13:1,2016-06-02T09:00:00Z,26.5255,-82.0032,2.35,5.49,1111122 
SCCF RECON,ioos:station:SCCF:13:1,2016-06-02T10:00:00Z,26.5255,-82.0032,2.34,5.58,1111122 
SCCF RECON,ioos:station:SCCF:13:1,2016-06-02T11:00:00Z,26.5255,-82.0032,2.425,5.64,1111122 
SCCF RECON,ioos:station:SCCF:13:1,2016-06-02T12:00:00Z,26.5255,-82.0032,2.55,5.25,1111122 
SCCF RECON,ioos:station:SCCF:13:1,2016-06-02T13:00:00Z,26.5255,-82.0032,2.651,5.27,1111122 
SCCF RECON,ioos:station:SCCF:13:1,2016-06-02T14:00:00Z,26.5255,-82.0032,2.721,5.7,1111122 
SCCF RECON,ioos:station:SCCF:13:1,2016-06-02T15:00:00Z,26.5255,-82.0032,2.772,5.43,1111122 
SCCF RECON,ioos:station:SCCF:13:1,2016-06-02T16:00:00Z,26.5255,-82.0032,2.803,5.6,1111122 
SCCF RECON,ioos:station:SCCF:13:1,2016-06-02T17:00:00Z,26.5255,-82.0032,2.747,6.03,1111122 
SCCF RECON,ioos:station:SCCF:13:1,2016-06-02T18:00:00Z,26.5255,-82.0032,2.63,6.0,1111122 
SCCF RECON,ioos:station:SCCF:13:1,2016-06-02T19:00:00Z,26.5255,-82.0032,2.511,6.05,1111122 
SCCF RECON,ioos:station:SCCF:13:1,2016-06-02T20:00:00Z,26.5255,-82.0032,2.399,6.17,1111122 
SCCF RECON,ioos:station:SCCF:13:1,2016-06-02T21:00:00Z,26.5255,-82.0032,2.295,6.5,1111122 
SCCF RECON,ioos:station:SCCF:13:1,2016-06-02T22:00:00Z,26.5255,-82.0032,2.212,6.52,1111122 
SCCF RECON,ioos:station:SCCF:13:1,2016-06-02T23:00:00Z,26.5255,-82.0032,2.166,6.46,1111122 
SCCF RECON,ioos:station:SCCF:13:1,2016-06-03T00:00:00Z,26.5255,-82.0032,2.23,6.21,1111122 
SCCF RECON,ioos:station:SCCF:13:1,2016-06-03T01:00:00Z,26.5255,-82.0032,2.398,6.15,1111122 
SCCF RECON,ioos:station:SCCF:13:1,2016-06-03T02:00:00Z,26.5255,-82.0032,2.496,5.77,1111122 
SCCF RECON,ioos:station:SCCF:13:1,2016-06-03T03:00:00Z,26.5255,-82.0032,2.567,5.84,1111122 
SCCF RECON,ioos:station:SCCF:13:1,2016-06-03T04:00:00Z,26.5255,-82.0032,2.64,6.07,1111122 
SCCF RECON,ioos:station:SCCF:13:1,2016-06-03T05:00:00Z,26.5255,-82.0032,2.68,6.24,1111122 
SCCF RECON,ioos:station:SCCF:13:1,2016-06-03T06:00:00Z,26.5255,-82.0032,2.66,6.36,1111122 
SCCF RECON,ioos:station:SCCF:13:1,2016-06-03T07:00:00Z,26.5255,-82.0032,2.599,6.16,1111122 
SCCF RECON,ioos:station:SCCF:13:1,2016-06-03T08:00:00Z,26.5255,-82.0032,2.529,6.09,1111122 
SCCF RECON,ioos:station:SCCF:13:1,2016-06-03T09:00:00Z,26.5255,-82.0032,2.48,5.7,1111122 
SCCF RECON,ioos:station:SCCF:13:1,2016-06-03T10:00:00Z,26.5255,-82.0032,2.419,5.29,1111122 
SCCF RECON,ioos:station:SCCF:13:1,2016-06-03T11:00:00Z,26.5255,-82.0032,2.4,5.43,1111122 
SCCF RECON,ioos:station:SCCF:13:1,2016-06-03T12:00:00Z,26.5255,-82.0032,2.52,5.26,1111122 
SCCF RECON,ioos:station:SCCF:13:1,2016-06-03T13:00:00Z,26.5255,-82.0032,2.651,5.08,1111122 
SCCF RECON,ioos:station:SCCF:13:1,2016-06-03T14:00:00Z,26.5255,-82.0032,2.728,5.51,1111122 
SCCF RECON,ioos:station:SCCF:13:1,2016-06-03T15:00:00Z,26.5255,-82.0032,2.78,5.76,1111122 
SCCF RECON,ioos:station:SCCF:13:1,2016-06-03T16:00:00Z,26.5255,-82.0032,2.829,5.57,1111122 
SCCF RECON,ioos:station:SCCF:13:1,2016-06-03T17:00:00Z,26.5255,-82.0032,2.84,5.9,1111122 
SCCF RECON,ioos:station:SCCF:13:1,2016-06-03T18:00:00Z,26.5255,-82.0032,2.78,6.31,1111122 
SCCF RECON,ioos:station:SCCF:13:1,2016-06-03T19:00:00Z,26.5255,-82.0032,2.649,6.16,1111122 
SCCF RECON,ioos:station:SCCF:13:1,2016-06-03T20:00:00Z,26.5255,-82.0032,2.51,6.12,1111122 
SCCF RECON,ioos:station:SCCF:13:1,2016-06-03T21:00:00Z,26.5255,-82.0032,2.399,6.24,1111122 
SCCF RECON,ioos:station:SCCF:13:1,2016-06-03T22:00:00Z,26.5255,-82.0032,2.298,6.49,1111122 
SCCF RECON,ioos:station:SCCF:13:1,2016-06-03T23:00:00Z,26.5255,-82.0032,2.21,6.43,1111122 
SCCF RECON,ioos:station:SCCF:13:1,2016-06-04T00:00:00Z,26.5255,-82.0032,2.191,6.18,1111122 
SCCF RECON,ioos:station:SCCF:13:1,2016-06-04T01:00:00Z,26.5255,-82.0032,2.18,5.91,1111122 
SCCF RECON,ioos:station:SCCF:13:1,2016-06-04T02:00:00Z,26.5255,-82.0032,2.31,5.8,1111122 
SCCF RECON,ioos:station:SCCF:13:1,2016-06-04T03:00:00Z,26.5255,-82.0032,2.44,5.73,1111122 
SCCF RECON,ioos:station:SCCF:13:1,2016-06-04T04:00:00Z,26.5255,-82.0032,2.54,5.69,1111122 
SCCF RECON,ioos:station:SCCF:13:1,2016-06-04T05:00:00Z,26.5255,-82.0032,2.6,5.67,1111122 
SCCF RECON,ioos:station:SCCF:13:1,2016-06-04T06:00:00Z,26.5255,-82.0032,2.65,5.78,1111122 
SCCF RECON,ioos:station:SCCF:13:1,2016-06-04T07:00:00Z,26.5255,-82.0032,2.639,5.83,1111122 
SCCF RECON,ioos:station:SCCF:13:1,2016-06-04T08:00:00Z,26.5255,-82.0032,2.583,5.61,1111122 
SCCF RECON,ioos:station:SCCF:13:1,2016-06-04T09:00:00Z,26.5255,-82.0032,2.52,5.66,1111122 
SCCF RECON,ioos:station:SCCF:13:1,2016-06-04T10:00:00Z,26.5255,-82.0032,2.43,5.33,1111122 
SCCF RECON,ioos:station:SCCF:13:1,2016-06-04T11:00:00Z,26.5255,-82.0032,2.389,5.15,1111122 
SCCF RECON,ioos:station:SCCF:13:1,2016-06-04T12:00:00Z,26.5255,-82.0032,2.38,5.17,1111122 
SCCF RECON,ioos:station:SCCF:13:1,2016-06-04T13:00:00Z,26.5255,-82.0032,2.55,5.04,1111122 
SCCF RECON,ioos:station:SCCF:13:1,2016-06-04T14:00:00Z,26.5255,-82.0032,2.679,5.11,1111122 
SCCF RECON,ioos:station:SCCF:13:1,2016-06-04T15:00:00Z,26.5255,-82.0032,2.753,5.64,1111122 
SCCF RECON,ioos:station:SCCF:13:1,2016-06-04T16:00:00Z,26.5255,-82.0032,2.8,5.53,1111122 
SCCF RECON,ioos:station:SCCF:13:1,2016-06-04T17:00:00Z,26.5255,-82.0032,2.85,5.72,1111122 
SCCF RECON,ioos:station:SCCF:13:1,2016-06-04T18:00:00Z,26.5255,-82.0032,2.84,6.08,1111122 
SCCF RECON,ioos:station:SCCF:13:1,2016-06-04T19:00:00Z,26.5255,-82.0032,2.748,6.05,1111122 
SCCF RECON,ioos:station:SCCF:13:1,2016-06-04T20:00:00Z,26.5255,-82.0032,2.59,6.03,1111122 
SCCF RECON,ioos:station:SCCF:13:1,2016-06-04T21:00:00Z,26.5255,-82.0032,2.475,6.08,1111122 
SCCF RECON,ioos:station:SCCF:13:1,2016-06-04T22:00:00Z,26.5255,-82.0032,2.369,6.26,1111122 
SCCF RECON,ioos:station:SCCF:13:1,2016-06-04T23:00:00Z,26.5255,-82.0032,2.262,6.3,1111122 
SCCF RECON,ioos:station:SCCF:13:1,2016-06-05T00:00:00Z,26.5255,-82.0032,2.175,6.03,1111122 
SCCF RECON,ioos:station:SCCF:13:1,2016-06-05T01:00:00Z,26.5255,-82.0032,2.13,5.87,1111122 
SCCF RECON,ioos:station:SCCF:13:1,2016-06-05T02:00:00Z,26.5255,-82.0032,2.22,5.59,1111122 
SCCF RECON,ioos:station:SCCF:13:1,2016-06-05T03:00:00Z,26.5255,-82.0032,2.397,5.48,1111122 
SCCF RECON,ioos:station:SCCF:13:1,2016-06-05T04:00:00Z,26.5255,-82.0032,2.47,4.97,1111122 
SCCF RECON,ioos:station:SCCF:13:1,2016-06-05T05:00:00Z,26.5255,-82.0032,2.54,5.44,1111122 
SCCF RECON,ioos:station:SCCF:13:1,2016-06-05T06:00:00Z,26.5255,-82.0032,2.61,5.5,1111122 
SCCF RECON,ioos:station:SCCF:13:1,2016-06-05T07:00:00Z,26.5255,-82.0032,2.63,5.55,1111122 
SCCF RECON,ioos:station:SCCF:13:1,2016-06-05T08:00:00Z,26.5255,-82.0032,2.6,5.63,1111122 
SCCF RECON,ioos:station:SCCF:13:1,2016-06-05T09:00:00Z,26.5255,-82.0032,2.53,5.58,1111122 
SCCF RECON,ioos:station:SCCF:13:1,2016-06-05T10:00:00Z,26.5255,-82.0032,2.496,5.37,1111122 
SCCF RECON,ioos:station:SCCF:13:1,2016-06-05T11:00:00Z,26.5255,-82.0032,2.47,5.21,1111122 
SCCF RECON,ioos:station:SCCF:13:1,2016-06-05T12:00:00Z,26.5255,-82.0032,2.441,4.88,1111122 
SCCF RECON,ioos:station:SCCF:13:1,2016-06-05T13:00:00Z,26.5255,-82.0032,2.52,4.44,1111122 
SCCF RECON,ioos:station:SCCF:13:1,2016-06-05T14:00:00Z,26.5255,-82.0032,2.651,4.93,1111122 
SCCF RECON,ioos:station:SCCF:13:1,2016-06-05T15:00:00Z,26.5255,-82.0032,2.75,5.43,1111122 
SCCF RECON,ioos:station:SCCF:13:1,2016-06-05T16:00:00Z,26.5255,-82.0032,2.833,5.65,1111122 
SCCF RECON,ioos:station:SCCF:13:1,2016-06-05T17:00:00Z,26.5255,-82.0032,2.92,5.64,1111122 
SCCF RECON,ioos:station:SCCF:13:1,2016-06-05T18:00:00Z,26.5255,-82.0032,2.89,5.63,1111122 
SCCF RECON,ioos:station:SCCF:13:1,2016-06-05T19:00:00Z,26.5255,-82.0032,2.91,5.81,1111122 
SCCF RECON,ioos:station:SCCF:13:1,2016-06-05T20:00:00Z,26.5255,-82.0032,2.83,5.88,1111122 
SCCF RECON,ioos:station:SCCF:13:1,2016-06-05T21:00:00Z,26.5255,-82.0032,2.68,5.81,1111122 
SCCF RECON,ioos:station:SCCF:13:1,2016-06-05T22:00:00Z,26.5255,-82.0032,2.569,5.65,1111122 
SCCF RECON,ioos:station:SCCF:13:1,2016-06-05T23:00:00Z,26.5255,-82.0032,2.454,5.92,1111122 
SCCF RECON,ioos:station:SCCF:13:1,2016-06-06T00:00:00Z,26.5255,-82.0032,2.35,5.8,1111122 
SCCF RECON,ioos:station:SCCF:13:1,2016-06-06T01:00:00Z,26.5255,-82.0032,2.251,5.62,1111122 
SCCF RECON,ioos:station:SCCF:13:1,2016-06-06T02:00:00Z,26.5255,-82.0032,2.21,5.45,1111122 
SCCF RECON,ioos:station:SCCF:13:1,2016-06-06T03:00:00Z,26.5255,-82.0032,2.32,5.32,1111122 
SCCF RECON,ioos:station:SCCF:13:1,2016-06-06T04:00:00Z,26.5255,-82.0032,2.47,5.27,1111122 
SCCF RECON,ioos:station:SCCF:13:1,2016-06-06T05:00:00Z,26.5255,-82.0032,2.651,5.36,1111122 
SCCF RECON,ioos:station:SCCF:13:1,2016-06-06T06:00:00Z,26.5255,-82.0032,2.7,5.42,1111122 
SCCF RECON,ioos:station:SCCF:13:1,2016-06-06T07:00:00Z,26.5255,-82.0032,2.733,5.17,1111122 
SCCF RECON,ioos:station:SCCF:13:1,2016-06-06T08:00:00Z,26.5255,-82.0032,2.76,5.27,1111122 
SCCF RECON,ioos:station:SCCF:13:1,2016-06-06T09:00:00Z,26.5255,-82.0032,2.71,5.15,1111122 
SCCF RECON,ioos:station:SCCF:13:1,2016-06-06T10:00:00Z,26.5255,-82.0032,2.71,5.11,1111122 
SCCF RECON,ioos:station:SCCF:13:1,2016-06-06T11:00:00Z,26.5255,-82.0032,2.7,5.02,1111122 
SCCF RECON,ioos:station:SCCF:13:1,2016-06-06T12:00:00Z,26.5255,-82.0032,2.65,4.84,1111122 
SCCF RECON,ioos:station:SCCF:13:1,2016-06-06T13:00:00Z,26.5255,-82.0032,2.645,4.62,1111122 
SCCF RECON,ioos:station:SCCF:13:1,2016-06-06T14:00:00Z,26.5255,-82.0032,2.743,4.21,1111122 
SCCF RECON,ioos:station:SCCF:13:1,2016-06-06T15:00:00Z,26.5255,-82.0032,2.848,5.19,1111122 
SCCF RECON,ioos:station:SCCF:13:1,2016-06-06T16:00:00Z,26.5255,-82.0032,2.94,5.45,1111122 
SCCF RECON,ioos:station:SCCF:13:1,2016-06-06T17:00:00Z,26.5255,-82.0032,3.0,5.16,1111122 
SCCF RECON,ioos:station:SCCF:13:1,2016-06-06T18:00:00Z,26.5255,-82.0032,3.049,5.18,1111122 
SCCF RECON,ioos:station:SCCF:13:1,2016-06-06T19:00:00Z,26.5255,-82.0032,3.094,5.19,1111122 
SCCF RECON,ioos:station:SCCF:13:1,2016-06-06T20:00:00Z,26.5255,-82.0032,3.094,5.24,1111122 
SCCF RECON,ioos:station:SCCF:13:1,2016-06-06T21:00:00Z,26.5255,-82.0032,3.081,5.23,1111122 
SCCF RECON,ioos:station:SCCF:13:1,2016-06-06T22:00:00Z,26.5255,-82.0032,2.979,5.25,1111122 
SCCF RECON,ioos:station:SCCF:13:1,2016-06-06T23:00:00Z,26.5255,-82.0032,2.829,5.12,1111122 
SCCF RECON,ioos:station:SCCF:13:1,2016-06-07T00:00:00Z,26.5255,-82.0032,2.704,5.0,1111122 
SCCF RECON,ioos:station:SCCF:13:1,2016-06-07T01:00:00Z,26.5255,-82.0032,2.637,5.17,1111122 
SCCF RECON,ioos:station:SCCF:13:1,2016-06-07T02:00:00Z,26.5255,-82.0032,2.544,5.28,1111122 
SCCF RECON,ioos:station:SCCF:13:1,2016-06-07T03:00:00Z,26.5255,-82.0032,2.506,5.33,1111122 
SCCF RECON,ioos:station:SCCF:13:1,2016-06-07T04:00:00Z,26.5255,-82.0032,2.598,5.35,1111122 
SCCF RECON,ioos:station:SCCF:13:1,2016-06-07T05:00:00Z,26.5255,-82.0032,2.74,5.13,1111122 
SCCF RECON,ioos:station:SCCF:13:1,2016-06-07T06:00:00Z,26.5255,-82.0032,2.799,5.07,1111122 
SCCF RECON,ioos:station:SCCF:13:1,2016-06-07T07:00:00Z,26.5255,-82.0032,2.823,5.3,1111122 
SCCF RECON,ioos:station:SCCF:13:1,2016-06-07T08:00:00Z,26.5255,-82.0032,2.852,5.2,1111122 
SCCF RECON,ioos:station:SCCF:13:1,2016-06-07T09:00:00Z,26.5255,-82.0032,2.86,5.28,1111122 
SCCF RECON,ioos:station:SCCF:13:1,2016-06-07T10:00:00Z,26.5255,-82.0032,2.825,5.15,1111122 
SCCF RECON,ioos:station:SCCF:13:1,2016-06-07T11:00:00Z,26.5255,-82.0032,2.765,5.21,1111122 
SCCF RECON,ioos:station:SCCF:13:1,2016-06-07T12:00:00Z,26.5255,-82.0032,2.709,4.9,1111122 
SCCF RECON,ioos:station:SCCF:13:1,2016-06-07T13:00:00Z,26.5255,-82.0032,2.66,5.24,1111122 
SCCF RECON,ioos:station:SCCF:13:1,2016-06-07T14:00:00Z,26.5255,-82.0032,2.642,5.47,1111122 
SCCF RECON,ioos:station:SCCF:13:1,2016-06-07T15:00:00Z,26.5255,-82.0032,2.686,5.73,1111122 
SCCF RECON,ioos:station:SCCF:13:1,2016-06-07T16:00:00Z,26.5255,-82.0032,2.8,5.43,1111122 
SCCF RECON,ioos:station:SCCF:13:1,2016-06-07T17:00:00Z,26.5255,-82.0032,2.857,5.49,1111122 
SCCF RECON,ioos:station:SCCF:13:1,2016-06-07T18:00:00Z,26.5255,-82.0032,2.893,5.49,1111122 
SCCF RECON,ioos:station:SCCF:13:1,2016-06-07T19:00:00Z,26.5255,-82.0032,2.91,5.25,1111122 
SCCF RECON,ioos:station:SCCF:13:1,2016-06-07T20:00:00Z,26.5255,-82.0032,2.89,5.45,1111122 
SCCF RECON,ioos:station:SCCF:13:1,2016-06-07T21:00:00Z,26.5255,-82.0032,2.81,5.35,1111122 
SCCF RECON,ioos:station:SCCF:13:1,2016-06-07T22:00:00Z,26.5255,-82.0032,2.668,5.42,1111122 
SCCF RECON,ioos:station:SCCF:13:1,2016-06-07T23:00:00Z,26.5255,-82.0032,2.55,5.86,1111122 
SCCF RECON,ioos:station:SCCF:13:1,2016-06-08T00:00:00Z,26.5255,-82.0032,2.454,5.77,1111122 
SCCF RECON,ioos:station:SCCF:13:1,2016-06-08T01:00:00Z,26.5255,-82.0032,2.36,5.86,1111122 
SCCF RECON,ioos:station:SCCF:13:1,2016-06-08T02:00:00Z,26.5255,-82.0032,2.26,5.93,1111122 
SCCF RECON,ioos:station:SCCF:13:1,2016-06-08T03:00:00Z,26.5255,-82.0032,2.2,5.85,1111122 
SCCF RECON,ioos:station:SCCF:13:1,2016-06-08T04:00:00Z,26.5255,-82.0032,2.2,5.81,1111122 
SCCF RECON,ioos:station:SCCF:13:1,2016-06-08T05:00:00Z,26.5255,-82.0032,2.33,5.79,1111122 
SCCF RECON,ioos:station:SCCF:13:1,2016-06-08T06:00:00Z,26.5255,-82.0032,2.44,5.84,1111122 
SCCF RECON,ioos:station:SCCF:13:1,2016-06-08T07:00:00Z,26.5255,-82.0032,2.487,5.49,1111122 
SCCF RECON,ioos:station:SCCF:13:1,2016-06-08T08:00:00Z,26.5255,-82.0032,2.557,5.59,1111122 
SCCF RECON,ioos:station:SCCF:13:1,2016-06-08T09:00:00Z,26.5255,-82.0032,2.59,5.19,1111122 
SCCF RECON,ioos:station:SCCF:13:1,2016-06-08T10:00:00Z,26.5255,-82.0032,2.561,5.26,1111122 
SCCF RECON,ioos:station:SCCF:13:1,2016-06-08T11:00:00Z,26.5255,-82.0032,2.52,4.94,1111122 
SCCF RECON,ioos:station:SCCF:13:1,2016-06-08T12:00:00Z,26.5255,-82.0032,2.5,5.12,1111122 
SCCF RECON,ioos:station:SCCF:13:1,2016-06-08T13:00:00Z,26.5255,-82.0032,2.45,4.99,1111122 
SCCF RECON,ioos:station:SCCF:13:1,2016-06-08T14:00:00Z,26.5255,-82.0032,2.427,5.26,1111122 
SCCF RECON,ioos:station:SCCF:13:1,2016-06-08T15:00:00Z,26.5255,-82.0032,2.437,5.33,1111122 
SCCF RECON,ioos:station:SCCF:13:1,2016-06-08T16:00:00Z,26.5255,-82.0032,2.502,4.21,1111122 
SCCF RECON,ioos:station:SCCF:13:1,2016-06-08T17:00:00Z,26.5255,-82.0032,2.583,4.55,1111122 
SCCF RECON,ioos:station:SCCF:13:1,2016-06-08T18:00:00Z,26.5255,-82.0032,2.66,4.53,1111122 
SCCF RECON,ioos:station:SCCF:13:1,2016-06-08T19:00:00Z,26.5255,-82.0032,2.716,5.27,1111122 
SCCF RECON,ioos:station:SCCF:13:1,2016-06-08T20:00:00Z,26.5255,-82.0032,2.75,5.73,1111122 
SCCF RECON,ioos:station:SCCF:13:1,2016-06-08T21:00:00Z,26.5255,-82.0032,2.74,6.21,1111122 
SCCF RECON,ioos:station:SCCF:13:1,2016-06-08T22:00:00Z,26.5255,-82.0032,2.695,5.24,1111122 
SCCF RECON,ioos:station:SCCF:13:1,2016-06-08T23:00:00Z,26.5255,-82.0032,2.59,5.88,1111122 
SCCF RECON,ioos:station:SCCF:13:1,2016-06-09T00:00:00Z,26.5255,-82.0032,2.46,5.52,1111122 
SCCF RECON,ioos:station:SCCF:13:1,2016-06-09T01:00:00Z,26.5255,-82.0032,2.37,5.53,1111122 
SCCF RECON,ioos:station:SCCF:13:1,2016-06-09T02:00:00Z,26.5255,-82.0032,2.283,5.34,1111122 
SCCF RECON,ioos:station:SCCF:13:1,2016-06-09T03:00:00Z,26.5255,-82.0032,2.191,5.57,1111122 
SCCF RECON,ioos:station:SCCF:13:1,2016-06-09T04:00:00Z,26.5255,-82.0032,2.121,5.66,1111122 
SCCF RECON,ioos:station:SCCF:13:1,2016-06-09T05:00:00Z,26.5255,-82.0032,2.16,5.55,1111122 
SCCF RECON,ioos:station:SCCF:13:1,2016-06-09T06:00:00Z,26.5255,-82.0032,2.31,5.55,1111122 
SCCF RECON,ioos:station:SCCF:13:1,2016-06-09T07:00:00Z,26.5255,-82.0032,2.44,5.55,1111122 
SCCF RECON,ioos:station:SCCF:13:1,2016-06-09T08:00:00Z,26.5255,-82.0032,2.51,5.34,1111122 
SCCF RECON,ioos:station:SCCF:13:1,2016-06-09T09:00:00Z,26.5255,-82.0032,2.55,4.93,1111122 
SCCF RECON,ioos:station:SCCF:13:1,2016-06-09T10:00:00Z,26.5255,-82.0032,2.59,5.01,1111122 
SCCF RECON,ioos:station:SCCF:13:1,2016-06-09T11:00:00Z,26.5255,-82.0032,2.6,5.25,1111122 
SCCF RECON,ioos:station:SCCF:13:1,2016-06-09T12:00:00Z,26.5255,-82.0032,2.59,4.94,1111122 
SCCF RECON,ioos:station:SCCF:13:1,2016-06-09T13:00:00Z,26.5255,-82.0032,2.57,5.08,1111122 
SCCF RECON,ioos:station:SCCF:13:1,2016-06-09T14:00:00Z,26.5255,-82.0032,2.5,4.84,1111122 
SCCF RECON,ioos:station:SCCF:13:1,2016-06-09T15:00:00Z,26.5255,-82.0032,2.47,5.03,1111122 
SCCF RECON,ioos:station:SCCF:13:1,2016-06-09T16:00:00Z,26.5255,-82.0032,2.46,5.35,1111122 
SCCF RECON,ioos:station:SCCF:13:1,2016-06-09T17:00:00Z,26.5255,-82.0032,2.5,5.49,1111122 
SCCF RECON,ioos:station:SCCF:13:1,2016-06-09T18:00:00Z,26.5255,-82.0032,2.57,4.24,1111122 
SCCF RECON,ioos:station:SCCF:13:1,2016-06-09T19:00:00Z,26.5255,-82.0032,2.628,4.44,1111122 
SCCF RECON,ioos:station:SCCF:13:1,2016-06-09T20:00:00Z,26.5255,-82.0032,2.681,4.4,1111122 
SCCF RECON,ioos:station:SCCF:13:1,2016-06-09T21:00:00Z,26.5255,-82.0032,2.69,4.51,1111122 
SCCF RECON,ioos:station:SCCF:13:1,2016-06-09T22:00:00Z,26.5255,-82.0032,2.68,4.74,1111122 
SCCF RECON,ioos:station:SCCF:13:1,2016-06-09T23:00:00Z,26.5255,-82.0032,2.62,4.53,1111122 
SCCF RECON,ioos:station:SCCF:13:1,2016-06-10T00:00:00Z,26.5255,-82.0032,2.509,5.11,1111122 
SCCF RECON,ioos:station:SCCF:13:1,2016-06-10T01:00:00Z,26.5255,-82.0032,2.4,5.41,1111122 
SCCF RECON,ioos:station:SCCF:13:1,2016-06-10T02:00:00Z,26.5255,-82.0032,2.31,5.46,1111122 
SCCF RECON,ioos:station:SCCF:13:1,2016-06-10T03:00:00Z,26.5255,-82.0032,2.22,5.69,1111122 
SCCF RECON,ioos:station:SCCF:13:1,2016-06-10T04:00:00Z,26.5255,-82.0032,2.15,5.72,1111122 
SCCF RECON,ioos:station:SCCF:13:1,2016-06-10T05:00:00Z,26.5255,-82.0032,2.14,5.63,1111122 
SCCF RECON,ioos:station:SCCF:13:1,2016-06-10T06:00:00Z,26.5255,-82.0032,2.245,5.53,1111122 
SCCF RECON,ioos:station:SCCF:13:1,2016-06-10T07:00:00Z,26.5255,-82.0032,2.38,5.52,1111122 
SCCF RECON,ioos:station:SCCF:13:1,2016-06-10T08:00:00Z,26.5255,-82.0032,2.47,5.4,1111122 
SCCF RECON,ioos:station:SCCF:13:1,2016-06-10T09:00:00Z,26.5255,-82.0032,2.53,5.37,1111122 
SCCF RECON,ioos:station:SCCF:13:1,2016-06-10T10:00:00Z,26.5255,-82.0032,2.58,4.8,1111122 
SCCF RECON,ioos:station:SCCF:13:1,2016-06-10T11:00:00Z,26.5255,-82.0032,2.602,4.77,1111122 
SCCF RECON,ioos:station:SCCF:13:1,2016-06-10T12:00:00Z,26.5255,-82.0032,2.59,4.65,1111122 
SCCF RECON,ioos:station:SCCF:13:1,2016-06-10T13:00:00Z,26.5255,-82.0032,2.56,4.73,1111122 
SCCF RECON,ioos:station:SCCF:13:1,2016-06-10T14:00:00Z,26.5255,-82.0032,2.513,4.88,1111122 
SCCF RECON,ioos:station:SCCF:13:1,2016-06-10T15:00:00Z,26.5255,-82.0032,2.503,4.48,1111122 
SCCF RECON,ioos:station:SCCF:13:1,2016-06-10T16:00:00Z,26.5255,-82.0032,2.455,5.29,1111122 
SCCF RECON,ioos:station:SCCF:13:1,2016-06-10T17:00:00Z,26.5255,-82.0032,2.44,5.29,1111122 
SCCF RECON,ioos:station:SCCF:13:1,2016-06-10T18:00:00Z,26.5255,-82.0032,2.45,5.32,1111122 
SCCF RECON,ioos:station:SCCF:13:1,2016-06-10T19:00:00Z,26.5255,-82.0032,2.502,5.49,1111122 
SCCF RECON,ioos:station:SCCF:13:1,2016-06-10T20:00:00Z,26.5255,-82.0032,2.565,4.49,1111122 
SCCF RECON,ioos:station:SCCF:13:1,2016-06-10T21:00:00Z,26.5255,-82.0032,2.62,3.92,1111122 
SCCF RECON,ioos:station:SCCF:13:1,2016-06-10T22:00:00Z,26.5255,-82.0032,2.64,3.9,1111122 
SCCF RECON,ioos:station:SCCF:13:1,2016-06-10T23:00:00Z,26.5255,-82.0032,2.62,4.07,1111122 
SCCF RECON,ioos:station:SCCF:13:1,2016-06-11T00:00:00Z,26.5255,-82.0032,2.56,3.91,1111122 
SCCF RECON,ioos:station:SCCF:13:1,2016-06-11T01:00:00Z,26.5255,-82.0032,2.477,4.41,1111122 
SCCF RECON,ioos:station:SCCF:13:1,2016-06-11T02:00:00Z,26.5255,-82.0032,2.376,5.24,1111122 
SCCF RECON,ioos:station:SCCF:13:1,2016-06-11T03:00:00Z,26.5255,-82.0032,2.29,5.51,1111122 
SCCF RECON,ioos:station:SCCF:13:1,2016-06-11T04:00:00Z,26.5255,-82.0032,2.22,5.6,1111122 
SCCF RECON,ioos:station:SCCF:13:1,2016-06-11T05:00:00Z,26.5255,-82.0032,2.18,5.48,1111122 
SCCF RECON,ioos:station:SCCF:13:1,2016-06-11T06:00:00Z,26.5255,-82.0032,2.199,5.48,1111122 
SCCF RECON,ioos:station:SCCF:13:1,2016-06-11T07:00:00Z,26.5255,-82.0032,2.28,5.51,1111122 
SCCF RECON,ioos:station:SCCF:13:1,2016-06-11T08:00:00Z,26.5255,-82.0032,2.4,5.55,1111122 
SCCF RECON,ioos:station:SCCF:13:1,2016-06-11T09:00:00Z,26.5255,-82.0032,2.483,5.21,1111122 
SCCF RECON,ioos:station:SCCF:13:1,2016-06-11T10:00:00Z,26.5255,-82.0032,2.528,4.07,1111122 
SCCF RECON,ioos:station:SCCF:13:1,2016-06-11T11:00:00Z,26.5255,-82.0032,2.61,4.28,1111122 
SCCF RECON,ioos:station:SCCF:13:1,2016-06-11T12:00:00Z,26.5255,-82.0032,2.683,4.75,1111122 
SCCF RECON,ioos:station:SCCF:13:1,2016-06-11T13:00:00Z,26.5255,-82.0032,2.67,4.73,1111122 
SCCF RECON,ioos:station:SCCF:13:1,2016-06-11T14:00:00Z,26.5255,-82.0032,2.571,4.71,1111122 
SCCF RECON,ioos:station:SCCF:13:1,2016-06-11T15:00:00Z,26.5255,-82.0032,2.48,4.52,1111122 
SCCF RECON,ioos:station:SCCF:13:1,2016-06-11T16:00:00Z,26.5255,-82.0032,2.431,5.08,1111122 
SCCF RECON,ioos:station:SCCF:13:1,2016-06-11T17:00:00Z,26.5255,-82.0032,2.423,5.08,1111122 
SCCF RECON,ioos:station:SCCF:13:1,2016-06-11T18:00:00Z,26.5255,-82.0032,2.428,5.35,1111122 
SCCF RECON,ioos:station:SCCF:13:1,2016-06-11T19:00:00Z,26.5255,-82.0032,2.47,5.41,1111122 
SCCF RECON,ioos:station:SCCF:13:1,2016-06-11T20:00:00Z,26.5255,-82.0032,2.52,5.3,1111122 